Location: Newark
(54.6833°N, 25.2833°E)
Time: 01:40:45
(UTC+00:00)

Altair - Pass Details

Date: 16 November 2019
Orbit: 1502 x 1682 km, 47.2° (Epoch: 12 December)

Event Time Altitude Azimuth Distance (km) Brightness Sun altitude
Rises 07:23:43 0° 279° (W) 4,657 9.6 9.1°
Reaches altitude 10° 07:26:58 10° 272° (W) 3,688 9.2 9.4°
Maximum altitude 07:35:15 38° 209° (SSW) 2,207 8.8 10.1°
Drops below altitude 10° 07:43:47 10° 146° (SE) 3,793 14.3 10.8°
Sets 07:47:11 0° 138° (SE) 4,803 12.1 11.1°
